Location: Piotrkow Trybunalski
(51.4000°N, 19.6830°E)
Time: 14:41:01
(UTC+01:00)

Vanguard 2 - Pass Details

Date: 13 February 2023
Orbit: 553 x 2927 km, 32.9° (Epoch: 24 March)

Event Time Altitude Azimuth Distance (km) Brightness Sun altitude
Rises 22:30:56 0° 258° (WSW) 5,034 11.9 -48.2°
Reaches altitude 10° 22:34:27 10° 247° (WSW) 4,370 11.4 -48.5°
Enters shadow 22:35:59 14° 241° (WSW) 4,141 11.2 -48.6°
Maximum altitude 22:44:39 29° 194° (SSW) 3,777 - -49.2°
Drops below altitude 10° 22:57:52 10° 143° (SE) 5,691 - -50.1°
Sets 23:03:22 0° 134° (SE) 6,774 - -50.4°
